EW1185 Weather Reports


Display with metric or nautical units.
time (UTC)temp
F
wind
direction
speed
MPH
gust
MPH
rain 1hr
in
rain 24hr
in
rain mn
in
humidity
%
barometer
mb
20260505075509 58 135 0.0 0.0 0.00 0.00 0.00 53 1006.6
20260505075009 58 135 0.0 0.0 0.00 0.00 0.00 53 1006.6
20260505074509 58 135 0.0 0.0 0.00 0.00 0.00 53 1006.6
20260505074009 58 135 0.0 0.0 0.00 0.00 0.00 53 1006.6
20260505073510 58 135 0.0 0.0 0.00 0.00 0.00 53 1006.8
20260505073009 58 135 0.0 0.0 0.00 0.00 0.00 53 1006.8
20260505072509 58 135 0.0 0.0 0.00 0.00 0.00 53 1006.8
20260505071510 58 135 0.0 0.0 0.00 0.00 0.00 53 1007.1
20260505071010 58 135 0.0 0.0 0.00 0.00 0.00 53 1007.1
20260505070510 58 135 0.0 0.0 0.00 0.00 0.00 53 1007.1
20260505065509 58 135 0.0 0.0 0.00 0.00 0.00 46 1007.1
20260505065009 58 135 0.0 0.0 0.00 0.00 0.00 46 1007.1
20260505064009 58 135 0.0 0.0 0.00 0.00 0.00 46 1007.1
20260505063509 59 135 0.0 0.0 0.00 0.00 0.00 46 1006.8
20260505063009 59 135 0.0 0.0 0.00 0.00 0.00 46 1006.8
20260505062509 59 135 0.0 0.0 0.00 0.00 0.00 46 1006.8
20260505062009 59 135 0.0 0.0 0.00 0.00 0.00 46 1006.8
20260505061009 60 135 0.0 0.0 0.00 0.00 0.00 46 1006.5
20260505060009 60 135 0.0 0.0 0.00 0.00 0.00 37 1006.5
20260505055509 61 135 0.0 0.0 0.00 0.00 0.00 37 1006.1
20260505055009 61 135 0.0 0.0 0.00 0.00 0.00 37 1006.1
20260505054009 62 135 0.0 0.0 0.00 0.00 0.00 37 1006.1
20260505053509 62 135 0.0 0.0 0.00 0.00 0.00 37 1005.9
20260505053009 62 135 0.0 0.0 0.00 0.00 0.00 37 1005.9
20260505052509 62 135 0.0 0.0 0.00 0.00 0.00 37 1005.9
20260505052009 62 135 0.0 0.0 0.00 0.00 0.00 37 1005.9
20260505051509 62 135 0.0 0.0 0.00 0.00 0.00 37 1005.8
20260505051009 62 135 0.0 0.0 0.00 0.00 0.00 37 1005.8
20260505041009 63 135 0.0 0.0 0.00 0.00 0.00 33 1005.6
20260505040509 64 135 0.0 0.0 0.00 0.00 0.00 33 1005.6
20260505040009 64 135 0.0 0.0 0.00 0.00 0.00 23 1005.6
20260505035508 65 135 0.0 0.0 0.00 0.00 0.00 23 1005.5
20260505034508 65 135 0.0 0.0 0.00 0.00 0.00 23 1005.5
20260505034009 65 135 0.0 0.0 0.00 0.00 0.00 23 1005.5
20260505033508 65 135 0.0 0.0 0.00 0.00 0.00 23 1005.1
20260505032508 65 135 0.0 0.0 0.00 0.00 0.00 23 1005.1
20260505032009 65 135 0.0 0.0 0.00 0.00 0.00 23 1005.1
20260505031508 65 135 0.0 0.0 0.00 0.00 0.00 23 1004.7
20260505030509 65 135 0.0 0.0 0.00 0.00 0.00 23 1004.7
20260505030008 66 135 0.0 0.0 0.00 0.00 0.00 23 1004.7
20260505025509 66 135 0.0 0.0 0.00 0.00 0.00 23 1004.4
20260505025009 66 135 0.0 0.0 0.00 0.00 0.00 23 1004.4
20260505024508 67 135 0.0 0.0 0.00 0.00 0.00 23 1004.4
20260505024009 67 135 0.0 0.0 0.00 0.00 0.00 23 1004.4
20260505023509 67 135 0.0 0.0 0.00 0.00 0.00 23 1004.6
20260505023009 67 135 0.0 0.0 0.00 0.00 0.00 23 1004.6
20260505022509 68 135 0.0 0.0 0.00 0.00 0.00 23 1004.6
20260505022009 68 135 0.0 0.0 0.00 0.00 0.00 23 1004.6
20260505021509 68 135 0.0 0.0 0.00 0.00 0.00 23 1004.4
20260505021009 68 135 0.0 0.0 0.00 0.00 0.00 23 1004.4
20260505020509 69 135 0.0 0.0 0.00 0.00 0.00 23 1004.4
20260505020008 69 135 0.0 0.0 0.00 0.00 0.00 20 1004.4
20260505015508 70 135 0.0 0.0 0.00 0.00 0.00 20 1004.7
20260505015008 70 135 0.0 0.0 0.00 0.00 0.00 20 1004.7
20260505014508 70 135 0.0 0.0 0.00 0.00 0.00 20 1004.7
20260505013509 71 135 0.0 0.0 0.00 0.00 0.00 20 1004.9
20260505012509 71 135 0.0 0.0 0.00 0.00 0.00 20 1004.9
20260505012009 71 135 0.0 0.0 0.00 0.00 0.00 20 1004.9
20260505011509 72 135 0.0 0.0 0.00 0.00 0.00 20 1005.1
20260505011009 72 135 0.0 0.0 0.00 0.00 0.00 20 1005.1
20260505010509 73 135 0.0 0.0 0.00 0.00 0.00 20 1005.1
20260505010009 73 135 0.0 0.0 0.00 0.00 0.00 21 1005.1
20260505005508 73 135 0.0 0.0 0.00 0.00 0.00 21 1005.2
20260505004509 73 135 0.0 0.0 0.00 0.00 0.00 21 1005.2
20260505004008 73 135 0.0 0.0 0.00 0.00 0.00 21 1005.2
20260505003508 73 135 0.0 0.0 0.00 0.00 0.00 21 1005.4
20260505003008 73 135 0.0 0.0 0.00 0.00 0.00 21 1005.4
20260505002508 74 135 0.0 0.0 0.00 0.00 0.00 21 1005.4
20260505002009 74 135 0.0 0.0 0.00 0.00 0.00 21 1005.4
20260505001508 74 135 0.0 0.0 0.00 0.00 0.00 21 1005.3
20260505001008 74 135 0.0 0.0 0.00 0.00 0.00 21 1005.3
20260505000509 74 135 0.0 0.0 0.00 0.00 0.00 21 1005.3
20260505000009 74 135 0.0 0.0 0.00 0.00 0.00 21 1005.3
20260504235509 74 135 0.0 0.0 0.00 0.00 0.00 21 1005.3
20260504235009 73 135 0.0 0.0 0.00 0.00 0.00 21 1005.3
20260504234508 73 135 0.0 0.0 0.00 0.00 0.00 21 1005.3
20260504234009 74 135 0.0 0.0 0.00 0.00 0.00 21 1005.3
20260504233509 74 135 0.0 0.0 0.00 0.00 0.00 21 1005.4
20260504233009 74 135 0.0 0.0 0.00 0.00 0.00 21 1005.4
20260504232508 74 135 0.0 0.0 0.00 0.00 0.00 21 1005.4
20260504232008 75 135 0.0 0.0 0.00 0.00 0.00 21 1005.4
20260504231509 75 135 0.0 0.0 0.00 0.00 0.00 21 1005.6
20260504231008 74 135 0.0 0.0 0.00 0.00 0.00 21 1005.6
20260504230509 74 135 0.0 0.0 0.00 0.00 0.00 21 1005.6
20260504230009 74 135 0.0 0.0 0.00 0.00 0.00 18 1005.6
20260504225509 74 135 0.0 0.0 0.00 0.00 0.00 18 1005.5
20260504224508 74 135 0.0 0.0 0.00 0.00 0.00 18 1005.5
20260504224009 74 135 0.0 0.0 0.00 0.00 0.00 18 1005.5
20260504223509 74 135 0.0 0.0 0.00 0.00 0.00 18 1005.4
20260504223009 74 135 0.0 0.0 0.00 0.00 0.00 18 1005.4
20260504222509 74 135 0.0 0.0 0.00 0.00 0.00 18 1005.4
20260504222009 76 135 0.0 0.0 0.00 0.00 0.00 18 1005.4
20260504221509 75 135 0.0 0.0 0.00 0.00 0.00 18 1005.3
20260504221009 75 135 0.0 0.0 0.00 0.00 0.00 18 1005.3
20260504220508 75 135 0.0 0.0 0.00 0.00 0.00 18 1005.3
20260504220008 76 135 0.0 0.0 0.00 0.00 0.00 23 1005.3
20260504215508 76 135 0.0 0.0 0.00 0.00 0.00 23 1005.8
20260504215008 76 135 0.0 0.0 0.00 0.00 0.00 23 1005.8
20260504214508 76 135 0.0 0.0 0.00 0.00 0.00 23 1005.8
20260504214008 76 135 0.0 0.0 0.00 0.00 0.00 23 1005.8
20260504213508 76 135 0.0 0.0 0.00 0.00 0.00 23 1006.1
20260504213009 76 135 0.0 0.0 0.00 0.00 0.00 23 1006.1
20260504212508 76 135 0.0 0.0 0.00 0.00 0.00 23 1006.1
20260504212008 75 135 0.0 0.0 0.00 0.00 0.00 23 1006.1
20260504211507 76 135 0.0 0.0 0.00 0.00 0.00 23 1006.0
20260504211008 76 135 0.0 0.0 0.00 0.00 0.00 23 1006.0
20260504210509 75 135 0.0 0.0 0.00 0.00 0.00 23 1006.0
20260504210007 75 135 0.0 0.0 0.00 0.00 0.00 23 1006.0
20260504205508 75 135 0.0 0.0 0.00 0.00 0.00 23 1006.3
20260504204508 75 135 0.0 0.0 0.00 0.00 0.00 23 1006.3
20260504204008 76 135 0.0 0.0 0.00 0.00 0.00 23 1006.3
20260504203508 75 135 0.0 0.0 0.00 0.00 0.00 23 1006.5
20260504203008 76 135 0.0 0.0 0.00 0.00 0.00 23 1006.5
20260504202508 76 135 0.0 0.0 0.00 0.00 0.00 23 1006.5
20260504200508 75 135 0.0 0.0 0.00 0.00 0.00 23 1006.6
20260504200008 75 135 0.0 0.0 0.00 0.00 0.00 25 1006.6
20260504195508 74 135 0.0 0.0 0.00 0.00 0.00 25 1006.6
20260504195008 74 135 0.0 0.0 0.00 0.00 0.00 25 1006.6
20260504194507 74 135 0.0 0.0 0.00 0.00 0.00 25 1006.6
20260504194008 74 135 0.0 0.0 0.00 0.00 0.00 25 1006.6
20260504192508 74 135 0.0 0.0 0.00 0.00 0.00 25 1006.7
20260504192008 74 135 0.0 0.0 0.00 0.00 0.00 25 1006.7
20260504191508 74 135 0.0 0.0 0.00 0.00 0.00 25 1006.8
20260504191008 73 135 0.0 0.0 0.00 0.00 0.00 25 1006.8
20260504190508 73 135 0.0 0.0 0.00 0.00 0.00 25 1006.8
20260504190008 73 135 0.0 0.0 0.00 0.00 0.00 28 1006.8
20260504185508 73 135 0.0 0.0 0.00 0.00 0.00 28 1006.7
20260504185007 73 135 0.0 0.0 0.00 0.00 0.00 28 1006.7
20260504184508 73 135 0.0 0.0 0.00 0.00 0.00 28 1006.7
20260504183507 73 135 0.0 0.0 0.00 0.00 0.00 28 1006.9
20260504183008 72 135 0.0 0.0 0.00 0.00 0.00 28 1006.9
20260504182508 72 135 0.0 0.0 0.00 0.00 0.00 28 1006.9
20260504182008 72 135 0.0 0.0 0.00 0.00 0.00 28 1006.9
20260504181508 73 135 0.0 0.0 0.00 0.00 0.00 28 1007.1
20260504180508 72 135 0.0 0.0 0.00 0.00 0.00 28 1007.1
20260504180008 72 135 0.0 0.0 0.00 0.00 0.00 31 1007.1
20260504175507 72 135 0.0 0.0 0.00 0.00 0.00 31 1007.0
20260504175008 72 135 0.0 0.0 0.00 0.00 0.00 31 1007.0
20260504174508 72 135 0.0 0.0 0.00 0.00 0.00 31 1007.0
20260504174009 72 135 0.0 0.0 0.00 0.00 0.00 31 1007.0
20260504173508 71 135 0.0 0.0 0.00 0.00 0.00 31 1007.1
20260504173008 71 135 0.0 0.0 0.00 0.00 0.00 31 1007.1
20260504172508 71 135 0.0 0.0 0.00 0.00 0.00 31 1007.1
20260504172008 72 135 0.0 0.0 0.00 0.00 0.00 31 1007.1
20260504171507 72 135 0.0 0.0 0.00 0.00 0.00 31 1007.1
20260504171007 71 135 0.0 0.0 0.00 0.00 0.00 31 1007.1
20260504170508 71 135 0.0 0.0 0.00 0.00 0.00 31 1007.1
20260504151008 66 135 0.0 0.0 0.00 0.00 0.00 34 1006.5
20260504141007 65 135 0.0 0.0 0.00 0.00 0.00 39 1005.8
20260504140508 64 135 0.0 0.0 0.00 0.00 0.00 39 1005.8
20260504130508 55 135 0.0 0.0 0.00 0.00 0.00 35 1006.3
20260504110507 55 135 0.0 0.0 0.00 0.00 0.00 31 1006.6
20260504100507 56 135 0.0 0.0 0.00 0.00 0.00 26 1006.3
20260504082006 55 135 0.0 0.0 0.00 0.00 0.00 24 1005.7
20260504081007 56 135 0.0 0.0 0.00 0.00 0.00 24 1006.1
20260504080507 56 135 0.0 0.0 0.00 0.00 0.00 24 1006.1